Weather History for Newcastle, WY

Change the Weather History Date:

Friday, September 20, 2013

  Actual Average (KCUT) Record (KCUT)
Temperature  
Mean Temperature 52 °F 52 °F  
Max Temperature 69 °F 66 °F 86 °F (1979)
Min Temperature 35 °F 39 °F 19 °F (1983)
Degree Days  
Heating Degree Days 13 13  
Month to date heating degree days 180  
Since 1 July heating degree days 334  
Cooling Degree Days 0 0  
Month to date cooling degree days 11  
Year to date cooling degree days 177  
Growing Degree Days 2 (Base 50)    
Moisture  
Dew Point 31 °F    
Average Humidity 48    
Maximum Humidity 87    
Minimum Humidity 23    
Precipitation  
Precipitation 0.00 in 0.05 in 1.00 in (1989)
Month to date precipitation 1.16  
Year to date precipitation 16.08  
Sea Level Pressure  
Sea Level Pressure 30.10 in    
Wind  
Wind Speed 5 mph (East)    
Max Wind Speed 15 mph    
Max Gust Speed 23 mph    
T = Trace of Precipitation, MM = Missing Value Source: NWS Daily Summary

Daily Weather History Graph

Daily Weather History Graph

Search for Another Location

Airport:

Trip Planner

Search our weather history database for the weather conditions in past years. The results will help you decide how hot, cold, wet, or windy it might be!

Date:

Astronomy

Sep. 20, 2013 Rise Set
Actual Time 6:42 AM MDT 6:57 PM MDT
Civil Twilight 6:13 AM MDT 7:26 PM MDT
Nautical Twilight 5:39 AM MDT 8:00 PM MDT
Astronomical Twilight 5:05 AM MDT 8:34 PM MDT
Moon 7:28 PM MDT (9/20) 8:03 AM MDT (9/20)
Length of Visible Light 13h 12m
Length of Day
12h 15m
Full, 98% of the Moon is Illuminated
Sep 20
Full
Sep 26
Last Quarter
Oct 4
New
Oct 11
First Quarter
Oct 18
Full

Hourly Weather History & Observations

Time (MDT) Temp. Windchill Dew Point Humidity Pressure Visibility Wind Dir Wind Speed Gust Speed Precip Events Conditions
12:15 AM 41.0 °F 36.4 °F 32.0 °F 70% 30.19 in - North 6.9 mph - N/A   Clear
12:55 AM 41.0 °F 37.1 °F 32.0 °F 70% 30.20 in - North 5.8 mph - N/A   Clear
1:15 AM 41.0 °F - 32.0 °F 70% 30.20 in - North - - N/A   Clear
1:35 AM 35.6 °F 30.7 °F 32.0 °F 87% 30.20 in - ESE 5.8 mph - N/A   Clear
1:55 AM 37.4 °F 32.8 °F 32.0 °F 81% 30.20 in - SSE 5.8 mph - N/A   Clear
2:15 AM 35.6 °F - 32.0 °F 87% 30.20 in - Calm Calm - N/A   Clear
2:35 AM 35.6 °F - 32.0 °F 87% 30.20 in - Calm Calm - N/A   Clear
2:55 AM 35.6 °F - 32.0 °F 87% 30.19 in - Calm Calm - N/A   Clear
3:15 AM 35.6 °F - 32.0 °F 87% 30.19 in - Calm Calm - N/A   Clear
3:35 AM 35.6 °F 31.7 °F 32.0 °F 87% 30.19 in - ENE 4.6 mph - N/A   Unknown
3:55 AM 35.6 °F 31.7 °F 32.0 °F 87% 30.19 in - NNE 4.6 mph - N/A   Clear
4:15 AM 35.6 °F 30.7 °F 32.0 °F 87% 30.19 in - North 5.8 mph - N/A   Unknown
4:35 AM 37.4 °F 32.1 °F 32.0 °F 81% 30.19 in - North 6.9 mph - N/A   Clear
4:55 AM 37.4 °F 32.1 °F 32.0 °F 81% 30.18 in - North 6.9 mph - N/A   Clear
5:15 AM 37.4 °F - 32.0 °F 81% 30.18 in - Calm Calm - N/A   Clear
5:35 AM 35.6 °F 32.8 °F 32.0 °F 87% 30.19 in - NNE 3.5 mph - N/A   Unknown
5:55 AM 35.6 °F - 32.0 °F 87% 30.18 in - Calm Calm - N/A   Unknown
6:15 AM 35.6 °F 32.8 °F 32.0 °F 87% 30.18 in - North 3.5 mph - N/A   Unknown
6:35 AM 35.6 °F - 32.0 °F 87% 30.18 in - Calm Calm - N/A   Clear
6:55 AM 35.6 °F 32.8 °F 32.0 °F 87% 30.18 in - North 3.5 mph - N/A   Unknown
7:15 AM 35.6 °F 32.8 °F 32.0 °F 87% 30.19 in - NNE 3.5 mph - N/A   Clear
7:35 AM 37.4 °F - 33.8 °F 87% 30.18 in - Calm Calm - N/A   Clear
7:55 AM 42.8 °F - 33.8 °F 70% 30.17 in - Calm Calm - N/A   Clear
8:15 AM 42.8 °F - 33.8 °F 70% 30.17 in - Calm Calm - N/A   Clear
8:35 AM 46.4 °F - 33.8 °F 62% 30.17 in - Calm Calm - N/A   Clear
8:55 AM 50.0 °F - 33.8 °F 54% 30.17 in - Calm Calm - N/A   Clear
9:15 AM 51.8 °F - 33.8 °F 50% 30.17 in - Calm Calm - N/A   Clear
9:35 AM 53.6 °F - 33.8 °F 47% 30.17 in - Calm Calm - N/A   Clear
9:55 AM 53.6 °F - 33.8 °F 47% 30.17 in - Calm Calm - N/A   Clear
10:15 AM 55.4 °F - 33.8 °F 44% 30.16 in - Calm Calm - N/A   Clear
10:35 AM 55.4 °F - 32.0 °F 41% 30.16 in - Calm Calm - N/A   Clear
10:55 AM 57.2 °F - 33.8 °F 41% 30.15 in - SSW 5.8 mph - N/A   Clear
11:15 AM 59.0 °F - 32.0 °F 36% 30.15 in - Calm Calm - N/A   Clear
11:35 AM 60.8 °F - 32.0 °F 34% 30.14 in - Calm Calm - N/A   Clear
11:55 AM 62.6 °F - 32.0 °F 32% 30.13 in - SE 4.6 mph - N/A   Clear
12:15 PM 62.6 °F - 32.0 °F 32% 30.12 in - ESE 4.6 mph - N/A   Clear
12:35 PM 62.6 °F - 32.0 °F 32% 30.12 in - Calm Calm - N/A   Clear
12:55 PM 64.4 °F - 32.0 °F 30% 30.11 in - South 6.9 mph - N/A   Clear
1:15 PM 64.4 °F - 32.0 °F 30% 30.09 in - SE 4.6 mph - N/A   Clear
1:35 PM 66.2 °F - 32.0 °F 28% 30.09 in - North - - N/A   Clear
1:55 PM 66.2 °F - 30.2 °F 26% 30.08 in - WNW 3.5 mph - N/A   Clear
2:15 PM 68.0 °F - 30.2 °F 24% 30.07 in - WNW 8.1 mph - N/A   Clear
2:35 PM 68.0 °F - 30.2 °F 24% 30.07 in - WNW 4.6 mph - N/A   Clear
2:55 PM 68.0 °F - 30.2 °F 24% 30.06 in - SW 6.9 mph - N/A   Clear
3:15 PM 69.8 °F - 32.0 °F 25% 30.05 in - South 10.4 mph - N/A   Clear
3:35 PM 68.0 °F - 30.2 °F 24% 30.05 in - South 6.9 mph - N/A   Clear
3:55 PM 69.8 °F - 32.0 °F 25% 30.04 in - East 6.9 mph - N/A   Clear
4:15 PM 69.8 °F - 30.2 °F 23% 30.04 in - North - - N/A   Clear
4:35 PM 69.8 °F - 30.2 °F 23% 30.03 in - North - - N/A   Clear
4:55 PM 69.8 °F - 30.2 °F 23% 30.02 in - ESE 8.1 mph - N/A   Clear
5:15 PM 69.8 °F - 30.2 °F 23% 30.02 in - North - - N/A   Clear
5:35 PM 68.0 °F - 30.2 °F 24% 30.02 in - ESE 6.9 mph - N/A   Clear
5:55 PM 68.0 °F - 30.2 °F 24% 30.00 in - ESE 10.4 mph - N/A   Clear
6:15 PM 68.0 °F - 30.2 °F 24% 30.00 in - North - - N/A   Clear
6:35 PM 64.4 °F - 30.2 °F 28% 30.00 in - East 8.1 mph - N/A   Clear
6:55 PM 62.6 °F - 30.2 °F 30% 30.00 in - East 6.9 mph - N/A   Clear
7:15 PM 60.8 °F - 30.2 °F 31% 29.99 in - East 8.1 mph - N/A   Clear
7:35 PM 62.6 °F - 28.4 °F 27% 29.99 in - East 9.2 mph - N/A   Clear
7:55 PM 62.6 °F - 26.6 °F 26% 29.99 in - East 9.2 mph - N/A   Clear
8:15 PM 60.8 °F - 26.6 °F 27% 29.99 in - ESE 5.8 mph - N/A   Clear
8:35 PM 60.8 °F - 26.6 °F 27% 29.99 in - East 8.1 mph - N/A   Clear
8:55 PM 60.8 °F - 26.6 °F 27% 29.98 in - East 11.5 mph - N/A   Clear
9:15 PM 60.8 °F - 26.6 °F 27% 29.99 in - East 8.1 mph - N/A   Clear
9:35 PM 60.8 °F - 26.6 °F 27% 29.99 in - East 10.4 mph - N/A   Clear
9:55 PM 60.8 °F - 26.6 °F 27% 29.99 in - ESE 11.5 mph - N/A   Clear
10:15 PM 60.8 °F - 26.6 °F 27% 29.99 in - ESE 12.7 mph - N/A   Clear
10:35 PM 60.8 °F - 26.6 °F 27% 29.98 in - ESE 12.7 mph 19.6 mph N/A   Clear
10:55 PM 60.8 °F - 26.6 °F 27% 29.98 in - ESE 15.0 mph 19.6 mph N/A   Clear
11:15 PM 60.8 °F - 26.6 °F 27% 29.98 in - ESE 13.8 mph 19.6 mph N/A   Clear
11:35 PM 60.8 °F - 26.6 °F 27% 29.97 in - ESE 15.0 mph 23.0 mph N/A   Clear
11:55 PM 60.8 °F - 26.6 °F 27% 29.97 in - ESE 13.8 mph 20.7 mph N/A   Clear